TimeEDT,TemperatureF,Dew PointF,Humidity,Sea Level PressureIn,VisibilityMPH,Wind Direction,Wind SpeedMPH,Gust SpeedMPH,PrecipitationIn,Events,Conditions,WindDirDegrees,DateUTC
12:54 AM,46.9,39.9,77,30.00,10.0,SE,3.5,-,N/A,,Scattered Clouds,130,2013-10-21 04:54:00
1:54 AM,48.0,41.0,77,30.01,10.0,SSE,4.6,-,N/A,,Overcast,150,2013-10-21 05:54:00
2:54 AM,48.9,41.0,74,30.01,10.0,Calm,Calm,-,N/A,,Overcast,0,2013-10-21 06:54:00
3:54 AM,50.0,39.9,68,30.01,10.0,South,5.8,-,N/A,,Overcast,180,2013-10-21 07:54:00
4:54 AM,48.9,37.9,66,30.00,10.0,South,5.8,-,N/A,,Scattered Clouds,170,2013-10-21 08:54:00
5:54 AM,48.0,37.9,68,30.01,10.0,SE,4.6,-,N/A,,Mostly Cloudy,140,2013-10-21 09:54:00
6:54 AM,48.0,39.0,71,30.01,10.0,SSE,5.8,-,N/A,,Mostly Cloudy,160,2013-10-21 10:54:00
7:54 AM,52.0,39.0,61,30.01,10.0,South,6.9,-,N/A,,Overcast,180,2013-10-21 11:54:00
8:54 AM,54.0,39.0,57,30.01,10.0,South,9.2,-,N/A,,Overcast,190,2013-10-21 12:54:00
9:54 AM,57.9,39.0,49,29.99,10.0,SSW,12.7,-,N/A,,Mostly Cloudy,200,2013-10-21 13:54:00
10:54 AM,62.1,39.0,43,29.98,10.0,SSW,15.0,21.9,N/A,,Overcast,200,2013-10-21 14:54:00
11:54 AM,63.0,37.0,38,29.97,10.0,SSW,15.0,-,N/A,,Overcast,210,2013-10-21 15:54:00
12:54 PM,66.0,37.9,36,29.95,10.0,SSW,16.1,27.6,N/A,,Overcast,210,2013-10-21 16:54:00
1:54 PM,64.9,37.9,37,29.92,10.0,South,12.7,23.0,N/A,,Overcast,190,2013-10-21 17:54:00
2:54 PM,64.9,37.9,37,29.90,10.0,South,11.5,20.7,N/A,,Overcast,170,2013-10-21 18:54:00
3:54 PM,64.9,37.9,37,29.89,10.0,South,13.8,-,N/A,,Overcast,170,2013-10-21 19:54:00
4:54 PM,64.0,37.0,37,29.87,10.0,South,11.5,-,N/A,,Overcast,170,2013-10-21 20:54:00
5:54 PM,63.0,37.9,40,29.86,10.0,SSE,8.1,-,N/A,,Overcast,160,2013-10-21 21:54:00
6:54 PM,60.1,37.9,44,29.86,10.0,SSE,6.9,-,N/A,,Overcast,160,2013-10-21 22:54:00
7:54 PM,60.1,37.9,44,29.84,10.0,South,6.9,-,N/A,,Overcast,170,2013-10-21 23:54:00
8:54 PM,61.0,37.0,41,29.83,10.0,South,16.1,24.2,N/A,,Overcast,190,2013-10-22 00:54:00
9:54 PM,61.0,37.0,41,29.82,10.0,South,17.3,27.6,N/A,,Overcast,180,2013-10-22 01:54:00
10:54 PM,60.1,37.9,44,29.81,10.0,South,16.1,27.6,N/A,,Overcast,190,2013-10-22 02:54:00
11:54 PM,59.0,37.9,46,29.79,10.0,South,16.1,25.3,N/A,,Mostly Cloudy,180,2013-10-22 03:54:00